Time,TemperatureF,DewpointF,PressureIn,WindDirection,WindDirectionDegrees,WindSpeedMPH,WindSpeedGustMPH,Humidity,HourlyPrecipIn,Conditions,Clouds,dailyrainin,SoftwareType,DateUTC
2013-02-27 00:02:00,15.0,15.0,-100.00,NW,320,3.0,5.0,99,0.00,,,-99.99,,2013-02-27 06:02:00,
2013-02-27 00:11:00,15.0,15.0,-100.00,NW,320,3.0,5.0,99,0.00,,,-99.99,,2013-02-27 06:11:00,
2013-02-27 00:21:00,15.0,15.0,-100.00,NW,315,3.0,4.0,99,0.00,,,-99.99,,2013-02-27 06:21:00,
2013-02-27 00:33:00,15.0,15.0,-100.00,NW,325,2.0,3.0,99,0.00,,,-99.99,,2013-02-27 06:33:00,
2013-02-27 00:42:00,14.0,14.0,-100.00,NNW,330,2.0,4.0,99,0.00,,,-99.99,,2013-02-27 06:42:00,
2013-02-27 00:51:00,14.0,14.0,-100.00,NNW,330,2.0,4.0,99,0.00,,,-99.99,,2013-02-27 06:51:00,
2013-02-27 01:01:00,14.0,14.0,-100.00,NW,305,2.0,4.0,99,0.00,,,-99.99,,2013-02-27 07:01:00,
2013-02-27 01:12:00,14.0,14.0,-100.00,NW,305,2.0,4.0,99,0.00,,,-99.99,,2013-02-27 07:12:00,
2013-02-27 01:21:00,13.0,13.0,-100.00,NW,310,3.0,4.0,99,0.00,,,-99.99,,2013-02-27 07:21:00,
2013-02-27 01:32:00,13.0,13.0,-100.00,NW,315,3.0,4.0,99,0.00,,,-99.99,,2013-02-27 07:32:00,
2013-02-27 01:42:00,12.0,12.0,-100.00,NW,305,4.0,5.0,99,0.00,,,-99.99,,2013-02-27 07:42:00,
2013-02-27 01:51:00,12.0,12.0,-100.00,NW,305,4.0,5.0,99,0.00,,,-99.99,,2013-02-27 07:51:00,
2013-02-27 02:01:00,12.0,12.0,-100.00,NW,310,3.0,4.0,99,0.00,,,-99.99,,2013-02-27 08:01:00,
2013-02-27 02:11:00,12.0,12.0,-100.00,NW,310,3.0,4.0,99,0.00,,,-99.99,,2013-02-27 08:11:00,
2013-02-27 02:21:00,11.0,11.0,-100.00,NW,310,3.0,4.0,99,0.00,,,-99.99,,2013-02-27 08:21:00,
2013-02-27 02:32:00,11.0,11.0,-100.00,NW,310,3.0,4.0,99,0.00,,,-99.99,,2013-02-27 08:32:00,
2013-02-27 02:42:00,10.0,10.0,-100.00,NW,320,2.0,4.0,99,0.00,,,-99.99,,2013-02-27 08:42:00,
2013-02-27 02:52:00,10.0,10.0,-100.00,NW,320,2.0,4.0,99,0.00,,,-99.99,,2013-02-27 08:52:00,
2013-02-27 03:02:00,10.0,10.0,-100.00,NW,315,3.0,4.0,99,0.00,,,-99.99,,2013-02-27 09:02:00,
2013-02-27 03:12:00,10.0,10.0,-100.00,NW,315,3.0,4.0,99,0.00,,,-99.99,,2013-02-27 09:12:00,
2013-02-27 03:21:00,10.0,10.0,-100.00,NW,320,3.0,5.0,99,0.00,,,-99.99,,2013-02-27 09:21:00,
2013-02-27 03:32:00,10.0,10.0,-100.00,NW,320,4.0,6.0,99,0.00,,,-99.99,,2013-02-27 09:32:00,
2013-02-27 03:41:00,9.0,9.0,-100.00,NNW,330,3.0,4.0,99,0.00,,,-99.99,,2013-02-27 09:41:00,
2013-02-27 03:51:00,9.0,9.0,-100.00,NNW,330,3.0,4.0,99,0.00,,,-99.99,,2013-02-27 09:51:00,
2013-02-27 04:01:00,9.0,9.0,-100.00,NW,325,3.0,4.0,99,0.00,,,-99.99,,2013-02-27 10:01:00,
2013-02-27 04:12:00,9.0,9.0,-100.00,NW,325,3.0,4.0,99,0.00,,,-99.99,,2013-02-27 10:12:00,
2013-02-27 04:21:00,9.0,9.0,-100.00,NW,320,4.0,6.0,99,0.00,,,-99.99,,2013-02-27 10:21:00,
2013-02-27 04:32:00,9.0,9.0,-100.00,NNW,330,3.0,6.0,99,0.00,,,-99.99,,2013-02-27 10:32:00,
2013-02-27 04:42:00,9.0,9.0,-100.00,NNW,345,2.0,4.0,99,0.00,,,-99.99,,2013-02-27 10:42:00,
2013-02-27 04:52:00,9.0,9.0,-100.00,NNW,345,2.0,4.0,99,0.00,,,-99.99,,2013-02-27 10:52:00,
2013-02-27 05:02:00,9.0,9.0,-100.00,North,350,2.0,3.0,99,0.00,,,-99.99,,2013-02-27 11:02:00,
2013-02-27 05:12:00,9.0,9.0,-100.00,North,350,2.0,3.0,99,0.00,,,-99.99,,2013-02-27 11:12:00,
2013-02-27 05:22:00,9.0,9.0,-100.00,NNW,330,3.0,4.0,99,0.00,,,-99.99,,2013-02-27 11:22:00,
2013-02-27 05:32:00,10.0,10.0,-100.00,North,355,3.0,7.0,99,0.00,,,-99.99,,2013-02-27 11:32:00,
2013-02-27 05:42:00,9.0,9.0,-100.00,North,355,1.0,6.0,99,0.00,,,-99.99,,2013-02-27 11:42:00,
2013-02-27 05:52:00,9.0,9.0,-100.00,North,355,1.0,6.0,99,0.00,,,-99.99,,2013-02-27 11:52:00,
2013-02-27 06:02:00,9.0,9.0,-100.00,NNW,330,3.0,5.0,99,0.00,,,-99.99,,2013-02-27 12:02:00,
2013-02-27 06:13:00,9.0,9.0,-100.00,NNW,330,3.0,5.0,99,0.00,,,-99.99,,2013-02-27 12:13:00,
2013-02-27 06:22:00,10.0,10.0,-100.00,NNW,335,4.0,7.0,99,0.00,,,-99.99,,2013-02-27 12:22:00,
2013-02-27 06:33:00,10.0,10.0,-100.00,NNW,335,3.0,6.0,99,0.00,,,-99.99,,2013-02-27 12:33:00,
2013-02-27 06:42:00,10.0,10.0,-100.00,NNW,330,4.0,9.0,99,0.00,,,-99.99,,2013-02-27 12:42:00,
2013-02-27 06:52:00,10.0,10.0,-100.00,NNW,330,4.0,9.0,99,0.00,,,-99.99,,2013-02-27 12:52:00,
2013-02-27 07:02:00,10.0,10.0,-100.00,NW,325,3.0,6.0,99,0.00,,,-99.99,,2013-02-27 13:02:00,
2013-02-27 07:11:00,10.0,10.0,-100.00,NW,325,3.0,6.0,99,0.00,,,-99.99,,2013-02-27 13:11:00,
2013-02-27 07:22:00,10.0,10.0,-100.00,North,0,1.0,6.0,99,0.00,,,-99.99,,2013-02-27 13:22:00,
2013-02-27 07:32:00,11.0,11.0,-100.00,NW,320,3.0,5.0,99,0.00,,,-99.99,,2013-02-27 13:32:00,
2013-02-27 07:42:00,11.0,11.0,-100.00,North,350,2.0,5.0,99,0.00,,,-99.99,,2013-02-27 13:42:00,
2013-02-27 07:52:00,11.0,11.0,-100.00,North,350,2.0,5.0,99,0.00,,,-99.99,,2013-02-27 13:52:00,
2013-02-27 08:02:00,11.0,11.0,-100.00,NW,315,3.0,7.0,99,0.00,,,-99.99,,2013-02-27 14:02:00,
2013-02-27 08:12:00,11.0,11.0,-100.00,NW,315,3.0,7.0,99,0.00,,,-99.99,,2013-02-27 14:12:00,
2013-02-27 08:21:00,11.0,11.0,-100.00,NW,325,4.0,6.0,99,0.00,,,-99.99,,2013-02-27 14:21:00,
2013-02-27 08:32:00,12.0,12.0,-100.00,NNW,330,3.0,9.0,99,0.00,,,-99.99,,2013-02-27 14:32:00,
2013-02-27 08:42:00,13.0,13.0,-100.00,North,355,5.0,9.0,99,0.00,,,-99.99,,2013-02-27 14:42:00,
2013-02-27 08:52:00,13.0,13.0,-100.00,North,355,5.0,9.0,99,0.00,,,-99.99,,2013-02-27 14:52:00,
2013-02-27 09:02:00,14.0,14.0,-100.00,NNW,335,5.0,9.0,99,0.00,,,-99.99,,2013-02-27 15:02:00,
2013-02-27 09:12:00,14.0,14.0,-100.00,NNW,335,5.0,9.0,99,0.00,,,-99.99,,2013-02-27 15:12:00,
2013-02-27 09:22:00,14.0,14.0,-100.00,NW,325,6.0,8.0,99,0.00,,,-99.99,,2013-02-27 15:22:00,
2013-02-27 09:32:00,14.0,14.0,-100.00,NW,325,6.0,9.0,99,0.00,,,-99.99,,2013-02-27 15:32:00,
2013-02-27 09:42:00,15.0,15.0,-100.00,NNW,330,6.0,9.0,99,0.00,,,-99.99,,2013-02-27 15:42:00,
2013-02-27 09:52:00,15.0,15.0,-100.00,NNW,330,6.0,9.0,99,0.00,,,-99.99,,2013-02-27 15:52:00,
2013-02-27 10:02:00,16.0,16.0,-100.00,NNW,330,6.0,9.0,99,0.01,,,-99.99,,2013-02-27 16:02:00,
2013-02-27 10:12:00,16.0,16.0,-100.00,NNW,330,6.0,9.0,99,0.01,,,-99.99,,2013-02-27 16:12:00,
2013-02-27 10:22:00,17.0,17.0,-100.00,NNW,330,6.0,9.0,99,0.00,,,-99.99,,2013-02-27 16:22:00,
2013-02-27 10:32:00,18.0,18.0,-100.00,NW,320,6.0,9.0,99,0.00,,,-99.99,,2013-02-27 16:32:00,
2013-02-27 10:42:00,19.0,19.0,-100.00,NNW,330,6.0,9.0,99,0.00,,,-99.99,,2013-02-27 16:42:00,
2013-02-27 10:52:00,19.0,19.0,-100.00,NNW,330,6.0,9.0,99,0.00,,,-99.99,,2013-02-27 16:52:00,
2013-02-27 11:02:00,19.0,19.0,-100.00,NNW,330,3.0,9.0,99,0.00,,,-99.99,,2013-02-27 17:02:00,
2013-02-27 11:11:00,19.0,19.0,-100.00,NNW,330,3.0,9.0,99,0.00,,,-99.99,,2013-02-27 17:11:00,
2013-02-27 11:21:00,19.0,19.0,-100.00,NNW,335,4.0,9.0,99,0.00,,,-99.99,,2013-02-27 17:21:00,
2013-02-27 11:32:00,19.0,19.0,-100.00,NNW,330,4.0,9.0,99,0.00,,,-99.99,,2013-02-27 17:32:00,
2013-02-27 11:42:00,20.0,20.0,-100.00,NNW,330,6.0,9.0,99,0.00,,,-99.99,,2013-02-27 17:42:00,
2013-02-27 11:52:00,20.0,20.0,-100.00,NNW,330,6.0,9.0,99,0.00,,,-99.99,,2013-02-27 17:52:00,
2013-02-27 12:01:00,20.0,20.0,-100.00,NNW,330,4.0,9.0,99,0.00,,,-99.99,,2013-02-27 18:01:00,
2013-02-27 12:11:00,20.0,20.0,-100.00,NNW,330,4.0,9.0,99,0.00,,,-99.99,,2013-02-27 18:11:00,
2013-02-27 12:22:00,20.0,20.0,-100.00,NNW,330,4.0,9.0,99,0.00,,,-99.99,,2013-02-27 18:22:00,
2013-02-27 12:32:00,21.0,21.0,-100.00,North,350,4.0,9.0,99,0.00,,,-99.99,,2013-02-27 18:32:00,
2013-02-27 12:42:00,23.0,23.0,-100.00,NNW,340,4.0,19.0,99,0.00,,,-99.99,,2013-02-27 18:42:00,
2013-02-27 12:51:00,23.0,23.0,-100.00,NNW,340,4.0,19.0,99,0.00,,,-99.99,,2013-02-27 18:51:00,
2013-02-27 13:01:00,22.0,22.0,-100.00,NW,325,4.0,21.0,99,0.00,,,-99.99,,2013-02-27 19:01:00,
2013-02-27 13:12:00,22.0,22.0,-100.00,NW,325,4.0,21.0,99,0.00,,,-99.99,,2013-02-27 19:12:00,
2013-02-27 13:21:00,23.0,23.0,-100.00,NW,325,3.0,9.0,99,0.00,,,-99.99,,2013-02-27 19:21:00,
2013-02-27 13:32:00,23.0,23.0,-100.00,NW,325,4.0,19.0,99,0.00,,,-99.99,,2013-02-27 19:32:00,
2013-02-27 13:42:00,24.0,24.0,-100.00,NW,315,6.0,9.0,99,0.00,,,-99.99,,2013-02-27 19:42:00,
2013-02-27 13:52:00,24.0,24.0,-100.00,NW,315,6.0,9.0,99,0.00,,,-99.99,,2013-02-27 19:52:00,
2013-02-27 14:01:00,25.0,25.0,-100.00,NNW,335,4.0,20.0,99,0.00,,,-99.99,,2013-02-27 20:01:00,
2013-02-27 14:12:00,25.0,25.0,-100.00,NNW,335,4.0,20.0,99,0.00,,,-99.99,,2013-02-27 20:12:00,
2013-02-27 14:21:00,26.0,25.0,-100.00,NNW,330,4.0,21.0,99,0.00,,,-99.99,,2013-02-27 20:21:00,
2013-02-27 14:32:00,26.0,26.0,-100.00,NW,325,4.0,22.0,98,0.00,,,-99.99,,2013-02-27 20:32:00,
2013-02-27 14:42:00,27.0,26.0,-100.00,North,5,4.0,21.0,96,0.00,,,-99.99,,2013-02-27 20:42:00,
2013-02-27 14:52:00,27.0,26.0,-100.00,North,5,4.0,21.0,96,0.00,,,-99.99,,2013-02-27 20:52:00,
2013-02-27 15:02:00,27.0,26.0,-100.00,NNW,330,7.0,21.0,96,0.00,,,-99.99,,2013-02-27 21:02:00,
2013-02-27 15:11:00,27.0,26.0,-100.00,NNW,330,7.0,21.0,96,0.00,,,-99.99,,2013-02-27 21:11:00,
2013-02-27 15:21:00,27.0,26.0,-100.00,NNW,335,9.0,24.0,94,0.00,,,-99.99,,2013-02-27 21:21:00,
2013-02-27 15:32:00,28.0,26.0,-100.00,NW,320,4.0,19.0,93,0.00,,,-99.99,,2013-02-27 21:32:00,
2013-02-27 15:42:00,27.0,26.0,-100.00,NNW,345,6.0,24.0,92,0.00,,,-99.99,,2013-02-27 21:42:00,
2013-02-27 15:51:00,27.0,26.0,-100.00,NNW,345,6.0,24.0,92,0.00,,,-99.99,,2013-02-27 21:51:00,
2013-02-27 16:01:00,28.0,26.0,-100.00,North,0,6.0,9.0,92,0.00,,,-99.99,,2013-02-27 22:01:00,
2013-02-27 16:11:00,28.0,26.0,-100.00,North,0,6.0,9.0,92,0.00,,,-99.99,,2013-02-27 22:11:00,
2013-02-27 16:21:00,28.0,26.0,-100.00,NNW,340,4.0,22.0,92,0.00,,,-99.99,,2013-02-27 22:21:00,
2013-02-27 16:31:00,28.0,26.0,-100.00,NNW,335,7.0,23.0,92,0.00,,,-99.99,,2013-02-27 22:31:00,
2013-02-27 16:42:00,28.0,26.0,-100.00,NNW,340,4.0,22.0,92,0.00,,,-99.99,,2013-02-27 22:42:00,
2013-02-27 16:51:00,28.0,26.0,-100.00,NNW,340,4.0,22.0,92,0.00,,,-99.99,,2013-02-27 22:51:00,
2013-02-27 17:01:00,27.0,26.0,-100.00,NNW,335,3.0,19.0,92,0.00,,,-99.99,,2013-02-27 23:01:00,
2013-02-27 17:11:00,27.0,26.0,-100.00,NNW,335,3.0,19.0,92,0.00,,,-99.99,,2013-02-27 23:11:00,
2013-02-27 17:21:00,27.0,26.0,-100.00,NNW,330,4.0,19.0,92,0.00,,,-99.99,,2013-02-27 23:21:00,
2013-02-27 17:32:00,27.0,25.0,-100.00,NNW,335,6.0,24.0,93,0.00,,,-99.99,,2013-02-27 23:32:00,
2013-02-27 17:42:00,26.0,25.0,-100.00,NNW,330,5.0,22.0,93,0.00,,,-99.99,,2013-02-27 23:42:00,
2013-02-27 17:52:00,26.0,25.0,-100.00,NNW,330,5.0,22.0,93,0.00,,,-99.99,,2013-02-27 23:52:00,
2013-02-27 18:01:00,26.0,24.0,-100.00,NNW,335,4.0,20.0,94,0.00,,,-99.99,,2013-02-28 00:01:00,
2013-02-27 18:12:00,26.0,24.0,-100.00,NNW,335,4.0,20.0,94,0.00,,,-99.99,,2013-02-28 00:12:00,
2013-02-27 18:21:00,25.0,24.0,-100.00,NNW,335,4.0,19.0,94,0.00,,,-99.99,,2013-02-28 00:21:00,
2013-02-27 18:32:00,25.0,24.0,-100.00,NNW,345,4.0,20.0,94,0.00,,,-99.99,,2013-02-28 00:32:00,
2013-02-27 18:42:00,25.0,24.0,-100.00,NNW,340,3.0,20.0,95,0.00,,,-99.99,,2013-02-28 00:42:00,
2013-02-27 18:52:00,25.0,24.0,-100.00,NNW,340,3.0,20.0,95,0.00,,,-99.99,,2013-02-28 00:52:00,
2013-02-27 19:01:00,24.0,23.0,-100.00,North,0,4.0,9.0,95,0.00,,,-99.99,,2013-02-28 01:01:00,
2013-02-27 19:11:00,24.0,23.0,-100.00,North,0,4.0,9.0,95,0.00,,,-99.99,,2013-02-28 01:11:00,
2013-02-27 19:21:00,24.0,23.0,-100.00,NW,320,4.0,9.0,96,0.00,,,-99.99,,2013-02-28 01:21:00,
2013-02-27 19:32:00,24.0,23.0,-100.00,NW,320,4.0,9.0,96,0.00,,,-99.99,,2013-02-28 01:32:00,
2013-02-27 19:42:00,24.0,23.0,-100.00,NW,325,4.0,9.0,96,0.00,,,-99.99,,2013-02-28 01:42:00,
2013-02-27 19:52:00,24.0,23.0,-100.00,NW,325,4.0,9.0,96,0.00,,,-99.99,,2013-02-28 01:52:00,
2013-02-27 20:01:00,23.0,22.0,-100.00,NNW,335,4.0,9.0,96,0.00,,,-99.99,,2013-02-28 02:01:00,
2013-02-27 20:11:00,23.0,22.0,-100.00,NNW,335,4.0,9.0,96,0.00,,,-99.99,,2013-02-28 02:11:00,
2013-02-27 20:22:00,23.0,22.0,-100.00,NNW,330,3.0,9.0,96,0.00,,,-99.99,,2013-02-28 02:22:00,
2013-02-27 20:31:00,23.0,22.0,-100.00,NNW,330,4.0,19.0,96,0.00,,,-99.99,,2013-02-28 02:31:00,
2013-02-27 20:41:00,23.0,22.0,-100.00,NNW,330,4.0,19.0,96,0.00,,,-99.99,,2013-02-28 02:41:00,
2013-02-27 20:51:00,23.0,22.0,-100.00,NNW,330,4.0,19.0,96,0.00,,,-99.99,,2013-02-28 02:51:00,
2013-02-27 21:01:00,22.0,22.0,-100.00,NW,320,4.0,9.0,96,0.00,,,-99.99,,2013-02-28 03:01:00,
2013-02-27 21:11:00,22.0,22.0,-100.00,NW,320,4.0,9.0,96,0.00,,,-99.99,,2013-02-28 03:11:00,
2013-02-27 21:21:00,22.0,22.0,-100.00,NNW,330,4.0,21.0,96,0.00,,,-99.99,,2013-02-28 03:21:00,
2013-02-27 21:32:00,22.0,21.0,-100.00,NNW,330,4.0,21.0,96,0.00,,,-99.99,,2013-02-28 03:32:00,
2013-02-27 21:42:00,22.0,21.0,-100.00,NNW,335,3.0,9.0,96,0.00,,,-99.99,,2013-02-28 03:42:00,
2013-02-27 21:52:00,22.0,21.0,-100.00,NNW,335,3.0,9.0,96,0.00,,,-99.99,,2013-02-28 03:52:00,
2013-02-27 22:01:00,22.0,21.0,-100.00,NNW,335,5.0,20.0,96,0.00,,,-99.99,,2013-02-28 04:01:00,
2013-02-27 22:11:00,22.0,21.0,-100.00,NNW,335,5.0,20.0,96,0.00,,,-99.99,,2013-02-28 04:11:00,
2013-02-27 22:21:00,22.0,21.0,-100.00,NNW,330,6.0,9.0,96,0.00,,,-99.99,,2013-02-28 04:21:00,
2013-02-27 22:32:00,22.0,21.0,-100.00,NNW,330,4.0,9.0,96,0.00,,,-99.99,,2013-02-28 04:32:00,
2013-02-27 22:42:00,21.0,21.0,-100.00,NW,325,4.0,9.0,96,0.00,,,-99.99,,2013-02-28 04:42:00,
2013-02-27 22:52:00,21.0,21.0,-100.00,NW,325,4.0,9.0,96,0.00,,,-99.99,,2013-02-28 04:52:00,
2013-02-27 23:01:00,21.0,21.0,-100.00,NNW,330,4.0,9.0,96,0.00,,,-99.99,,2013-02-28 05:01:00,
2013-02-27 23:11:00,21.0,21.0,-100.00,NNW,330,4.0,9.0,96,0.00,,,-99.99,,2013-02-28 05:11:00,
2013-02-27 23:22:00,21.0,20.0,-100.00,NNW,335,5.0,9.0,96,0.00,,,-99.99,,2013-02-28 05:22:00,
2013-02-27 23:31:00,21.0,20.0,-100.00,NNW,335,6.0,9.0,96,0.00,,,-99.99,,2013-02-28 05:31:00,
2013-02-27 23:42:00,21.0,21.0,-100.00,NW,325,6.0,9.0,96,0.00,,,-99.99,,2013-02-28 05:42:00,
2013-02-27 23:52:00,21.0,21.0,-100.00,NW,325,6.0,9.0,96,0.00,,,-99.99,,2013-02-28 05:52:00,